Home   Weather   Nanjing   Past weeks
Flag for China

Past Weather in Nanjing, Jiangsu, China — Yesterday and Last 2 Weeks

Now
70 °F

Fog.


Feels Like: 70 °F
Forecast: 79 / 62 °F
Wind: 1 mph from West

Location: Nanjing

Current Time: May 27, 2019 at 3:25:59 am

Latest Report: May 27, 2019 at 3:00 am


Visibility: 1 mi

Pressure: 29.65 "Hg

Humidity: 100%

Dew Point: 70 °F

Location of NanjingLocation

Past Weather in Nanjing — Graph

°F

Nanjing Temperature Yesterday

Maximum temperature yesterday: 79 °F (at 5:00 pm)
Minimum temperature yesterday: 70 °F (at 11:00 pm)
Average temperature yesterday: 74 °F

High & Low Weather Summary for the Past Weeks

 TemperatureHumidityPressure
High97 °F (May 24, 3:00 pm)100% (May 18, 1:00 am)29.98 "Hg (May 18, 1:00 am)
Low55 °F (May 21, 2:00 am)14% (May 24, 1:00 pm)29.59 "Hg (May 26, 3:00 pm)
Average74 °F65%29.79 "Hg
* Reported May 12 2:00 am — May 27 2:00 am, Nanjing. Weather by CustomWeather, © 2019

Note: Actual official high and low records may vary slightly from our data, if they occured in-between our weather recording intervals... More about our weather records

Advertising

Nanjing Weather History for the Previous 24 Hours

Scroll right to see more
 ConditionsComfort  
Time TempWeatherWind HumidityBarometerVisibility
2:00 am
Mon, May 27
70 °FFog.1 mph100%29.65 "Hg3 mi
1:00 am70 °FClear.1 mph100%29.65 "Hg4 mi
12:00 am70 °FClear.1 mph100%29.65 "Hg5 mi
11:00 pm
Sun, May 26
70 °FClear.1 mph100%29.68 "Hg10 mi
10:00 pm72 °FClear.1 mph94%29.65 "Hg10 mi
9:00 pm73 °FClear.3 mph94%29.65 "Hg10 mi
8:00 pm73 °FClear.1 mph94%29.65 "Hg10 mi
7:00 pm75 °FPassing clouds.3 mph89%29.65 "HgN/A
6:00 pm77 °FPassing clouds.8 mph83%29.62 "HgN/A
5:00 pm79 °FScattered clouds.10 mph79%29.59 "HgN/A
4:00 pm77 °FScattered clouds.8 mph83%29.62 "HgN/A
3:00 pm75 °FScattered clouds.13 mph94%29.59 "HgN/A
2:00 pm73 °FLight rain. Mostly cloudy.15 mph94%29.62 "Hg6 mi
1:00 pm75 °FLight rain. Mostly cloudy.17 mph89%29.62 "Hg6 mi
12:00 pm75 °FMostly cloudy.15 mph89%29.65 "Hg6 mi
11:00 am73 °FLight rain. Mostly cloudy.13 mph94%29.65 "Hg5 mi
10:00 am73 °FLight rain. Mostly cloudy.10 mph94%29.65 "HgN/A
9:00 am72 °FLight rain. Mostly cloudy.10 mph94%29.65 "Hg5 mi
8:00 am72 °FLight rain. Fog.10 mph100%29.65 "Hg2 mi
7:00 am72 °FRain. Fog.8 mph94%29.65 "Hg1 mi
6:00 am72 °FRain. Fog.8 mph94%29.65 "Hg2 mi
5:00 am72 °FRain. Fog.8 mph94%29.65 "Hg2 mi
4:00 am73 °FMostly cloudy.8 mph89%29.65 "HgN/A
3:00 am73 °FPassing clouds.6 mph94%29.68 "HgN/A
Weather by CustomWeather, © 2019

See weather overview